Regional Weather Roundup
Issued by NWS

Home | Current Version | Previous Version | Text Only | Print | Product List | Glossary Off
Versions: 1 2 3 4 5 6 7 8 9 10 11 12 13 14 15 16 17 18 19 20 21 22 23 24 25 26 27 28 29 30 31 32 33 34 35 36 37 38 39 40 41 42 43 44 45 46 47 48 49 50

000
ASUS43 KIND 062059
RWRIN

WEATHER ROUNDUP FOR INDIANA
NATIONAL WEATHER SERVICE INDIANAPOLIS IN
400 PM EST FRI MAR 06 2015

NOTE: "FAIR" INDICATES FEW OR NO CLOUDS BELOW 12,000 FEET WITH NO
SIGNIFICANT WEATHER AND/OR OBSTRUCTIONS TO VISIBILITY.

* - STATION DOES NOT REPORT WEATHER SUCH AS PRECIPITATION OR FOG.

+ - STATION NOT QUALITY CONTROLLED BY THE NATIONAL WEATHER SERVICE.
    USE DATA WITH CAUTION...ESPECIALLY DEWPOINT AND RELATIVE
    HUMIDITY OBSERVATIONS.

INZ001>003-010>013-019-020-062200-
NORTHWEST INDIANA

CITY           SKY/WX    TMP DP  RH WIND       PRES   REMARKS
GARY /AIRPORT/ MOSUNNY   27   5  39 S12G29    30.25F WCI  16
VALPARAISO     NOT AVBL

$$

LMZ046-743>745-062200-
SOUTHERN LAKE MICHIGAN

STATION/POSITION TIME  TEMP WIND        PRES
                       AIR  DIR/SP/G
                 (UTC) (F)  (DEG/KT/KT) (MB)
MICHIGAN CITY    2000   21  160/ 18/ 23   N/A

$$

INZ004-005-014>016-021>024-062200-
NORTH CENTRAL INDIANA

CITY           SKY/WX    TMP DP  RH WIND       PRES   REMARKS
ELKHART        MOSUNNY   23   1  39 S12G22    30.29F WCI  12
GOSHEN         MOSUNNY   23   8  52 S15       30.28F WCI  10
SOUTH BEND     CLOUDY    25   8  48 S16       30.26F WCI  12

$$

INZ006>009-017-018-025>027-062200-
NORTHEAST INDIANA

CITY           SKY/WX    TMP DP  RH WIND       PRES   REMARKS
ANGOLA *+      SUNNY     21   3  45 SW10      30.29F WCI  10
FORT WAYNE     MOSUNNY   23  11  60 S15       30.33F WCI  10

$$

INZ028-029-035-036-043>045-051>053-062200-
WEST CENTRAL INDIANA

CITY           SKY/WX    TMP DP  RH WIND       PRES   REMARKS
CRAWFORDSVL +  PTSUNNY   26   6  43 S16       30.32F WCI  13
GREENCASTLE +  CLOUDY    28   1  31 S12G17    30.36F WCI  18
LAFAYETTE      CLOUDY    27  11  51 S8G17     30.31F WCI  19
TERRE HAUTE    SUNNY     26  10  50 S20       30.37F WCI  12

$$

INZ030>032-037>040-046>048-054>057-064-065-062200-
CENTRAL INDIANA

CITY           SKY/WX    TMP DP  RH WIND       PRES   REMARKS
ANDERSON       SUNNY     25  10  54 S12G23    30.36F WCI  14
COLUMBUS       SUNNY     28   7  40 S17       30.40F WCI  16
GREENWOOD *+   SUNNY     28   5  37 S14G20    30.37F WCI  17
INDIANAPOLIS   MOSUNNY   29   8  41 SW16      30.34F WCI  17
-EAGLE CREEK   CLOUDY    30   7  37 S10       30.34F WCI  21
KOKOMO *+        N/A    N/A N/A N/A MISG        N/A
MT COMFORT *+  SUNNY     28   3  34 S12       30.36F WCI  18
SHELBYVILLE    SUNNY     28  13  53 S17G23    30.37F WCI  16

$$

INZ033-034-041-042-049-050-058-059-062200-
EAST CENTRAL INDIANA

CITY           SKY/WX    TMP DP  RH WIND       PRES   REMARKS
MUNCIE         SUNNY     25  10  53 S18       30.34F WCI  11

$$

INZ060-061-067>069-081>083-085>088-062200-
SOUTHWEST INDIANA

CITY           SKY/WX    TMP DP  RH WIND       PRES   REMARKS
EVANSVILLE     SUNNY     28   7  41 SW10      30.46F WCI  19
HUNTINGBURG *+ SUNNY     27   9  46 S12       30.46S WCI  16

$$

INZ062-063-066-070>080-084-089>092-062200-
SOUTH CENTRAL AND SOUTHEAST INDIANA

CITY           SKY/WX    TMP DP  RH WIND       PRES   REMARKS
BLOOMINGTON    SUNNY     30   4  33 S10       30.38F WCI  21
SEYMOUR +      SUNNY     32  14  47 S10       30.42F WCI  24

$$



USA.gov is the U.S. government's official web portal to all federal, state and local government web resources and services.